小惑星A/2019 T1

A/2019 T1

English version
Home page
Updated on June 13, 2020

---------------------------------------------------------------------

・ プロフィール

発見日 2019年10月8日
発見光度 20.7等
発見者 Pan-STARRS 2 (Haleakala)

・ 軌道要素

Epoch 2021 Jan. 26.0 TT = JDT 2459240.5
T 2021 Jan. 14.26460 TT                                 Rudenko
q   4.2816007            (2000.0)            P               Q
z  +0.0261395      Peri.   91.03117     +0.04424516     -0.99360121
 +/-0.0000000      Node     6.95382     -0.81058023     -0.09650713
e   0.8880811      Incl.  120.86969     +0.58395382     -0.05867712
H   13.0
From 57 observations 2017 Sept. 16-2020 May 19, mean residual 0".3.

・ 光度変化

        H = 13.0  G = 0.15

---------------------------------------------------------------------

軌道要素はM.P.E.C. 2020-L06に掲載されたものです。
光度グラフはComet for Windowsで作成したものです。

---------------------------------------------------------------------

Copyright(C) Seiichi Yoshida (comet@aerith.net). All rights reserved.